Location: Del Amo
(33.8464°N, 118.2104°W)
Time: 06:46:36
(UTC+00:00)

Vanguard 3 - Pass Details

Date: 18 September 2024
Orbit: 507 x 3223 km, 33.3° (Epoch: 09 October)

Event Time Altitude Azimuth Distance (km) Brightness Sun altitude
Rises 16:49:36 0° 274° (W) 7,053 11.5 37.5°
Reaches altitude 10° 16:54:12 10° 274° (W) 6,126 11.3 38.3°
Maximum altitude 17:14:17 86° 188° (S) 2,907 10.7 41.9°
Drops below altitude 10° 17:28:42 10° 102° (ESE) 4,619 11.9 44.3°
Sets 17:31:39 0° 102° (ESE) 5,320 12.0 44.8°
